sat.trackr.live / text

‹ back to catalog

STARLINK-36176

NORAD 67026 · 2025-293Z

PAYLOAD ACTIVE UNKNOWN

§ Identity

Operator
Country
US
Launch date
2025-12-10
Launch site
AFWTR
Launch vehicle
Mass (kg)
RCS (m²)

Purposes: comms

External: N2YO · Heavens-Above · Gunter

§ Orbital elements

Epoch: 2026-09-20T21:43:47.622720Z

Period
96.11 min
Inclination
70.0073°
Eccentricity
0.0003629
Mean motion
14.98353557 rev/d
Perigee alt
569.5 km
Apogee alt
574.5 km
Semi-major
6,950.1 km
B*
4.7510e-4
RAAN
322.0703°
Arg perigee
276.0416°
Mean anomaly
84.0329°
Rev number
4,412

§ Raw data

STARLINK-361761 67026U 25293Z   26263.90541230  .00005584  00000+0  47510-3 0  99962 67026  70.0073 322.0703 0003629 276.0416  84.0329 14.98353557 44120

JSON: /api/v1/satellites/67026 · /tle

For live sub-satellite position, see the globe view (requires WebGL).

§ Visibility from observer

Set your observer location to see the next 7 days of passes ≥ 10°. The values pass through the URL so the page stays shareable.

No JS? Fill the form by hand. The geolocation button needs JavaScript.